Regional Weather Roundup
Issued by NWS

Home | Current Version | Previous Version | Graphics & Text | Print | Product List | Glossary On
Versions: 1 2 3 4 5 6 7 8 9 10 11 12 13 14 15 16 17 18 19 20 21 22 23 24 25 26 27 28 29 30 31 32 33 34 35 36 37 38 39 40 41 42 43 44 45 46 47 48 49 50
000
ASUS43 KFSD 040502
RWRSD

WEATHER ROUNDUP FOR SOUTH DAKOTA
NATIONAL WEATHER SERVICE SIOUX FALLS SD
1200 AM CDT MON MAY 04 2015

NOTE: "FAIR" INDICATES FEW OR NO CLOUDS BELOW 12,000 FEET WITH NO
SIGNIFICANT WEATHER AND/OR OBSTRUCTIONS TO VISIBILITY.


SDZ001>005-009-010-012>017-040600-
NORTHWEST AND NORTH CENTRAL SOUTH DAKOTA

CITY           SKY/WX    TMP DP  RH WIND       PRES   REMARKS
BUFFALO          N/A     49  34  56 NE7       30.04S
FAITH            N/A     50  25  37 NE5       30.09R
MOBRIDGE       CLEAR     49  25  39 NE10      30.05R
$$

SDZ012>016-024>037-041>051-057-063-072>074-040600-
SOUTHWEST AND SOUTH CENTRAL SOUTH DAKOTA

CITY           SKY/WX    TMP DP  RH WIND       PRES   REMARKS
RAPID CTY ARPT PTCLDY    49  34  56 NE12      30.08S
PIERRE         CLEAR     48  24  39 N8        30.05R
CUSTER         CLOUDY    47  31  53 E13       30.12S
ELLSWORTH AFB  PTCLDY    52  35  51 CALM      30.08R
PHILIP         PTCLDY    50  27  40 NE8       30.07R
PINE RIDGE     CLOUDY    48  37  65 E8        30.07R
WINNER         FAIR      54  27  35 E6        30.05R
$$

SDZ004>011-016>023-039-040-040600-
NORTHEAST SOUTH DAKOTA

CITY           SKY/WX    TMP DP  RH WIND       PRES   REMARKS
ABERDEEN       CLEAR     47  26  44 N8        30.05R
WATERTOWN      CLEAR     45  30  55 N7        30.04R
BROOKINGS      MOCLDY    50  32  50 N6        30.03S
SISSETON         N/A     46  25  43 N12       30.03R
$$

SDZ017-020-022-023-036>040-048>070-040600-
SOUTHEAST SOUTH DAKOTA

CITY           SKY/WX    TMP DP  RH WIND       PRES   REMARKS
SIOUX FALLS    PTCLDY    55  32  41 N10       30.00R
HURON          CLEAR     49  29  46 N9        30.03R
MITCHELL       CLEAR     52  34  50 NE5       30.03R
YANKTON        MOCLDY    61  36  39 N8        30.00R
$$

ABBREVIATIONS USED IN REMARKS
   TC - TEMPERATURE IN CELSIUS
  WCI - WIND CHILL INDEX
   HX - HEAT INDEX
  VSB - VISIBILITY




USA.gov is the U.S. government's official web portal to all federal, state and local government web resources and services.